Location: Chaum
(42.9380°N, 0.6560°E)
Time: 07:33:24
(UTC+00:00)

Daily predictions for brighter satellites

Satellite Brightness Start Highest point End
(mag) Time Altitude Azimuth Time Altitude Azimuth Time Altitude Azimuth
NOAA 6 4.0 16:49:25 10° SSE 16:54:33 76° ENE 16:59:43 10° N
USA 215 3.7 16:49:19 10° ENE 16:55:38 49° SE 17:01:55 10° SSW
Cosmos 1743 Rocket 3.6 16:52:01 10° N 16:56:27 60° E 17:00:50 10° SSE
COSMO-SKYMED 1 4.3 16:54:35 10° ENE 16:56:57 14° E 16:59:18 10° SE
ATLAS 5 CENTAUR R/B 3.7 16:51:39 10° NW 16:57:20 49° WSW 17:03:47 10° SSE
PAYLOAD B 4.2 16:51:54 10° SSE 16:57:28 75° ENE 17:03:03 10° N
PSLV R/B 4.1 16:53:45 10° SSE 16:57:52 83° WSW 17:01:59 10° NNW
Cosmos 2298 Rocket 4.1 16:52:44 10° NNW 16:58:00 59° ENE 17:03:14 10° SSE
Cosmos 2150 Rocket 4.1 16:54:19 10° NNW 16:59:23 55° ENE 17:04:26 10° SE
Cosmos 1818 3.8 16:55:07 10° NNW 17:00:26 49° NE 17:05:42 10° SE
Cosmos 1408 Rocket 4.2 16:57:45 10° NNW 17:02:05 60° W 17:06:21 10° S
Cosmos 1606 3.9 17:00:04 10° SE 17:03:15 24° E 17:06:26 10° NE
CZ-4B DEB 4.4 16:58:04 10° SSE 17:03:35 82° WSW 17:09:05 10° NNW
Sich 1 3.9 17:01:41 10° NNE 17:05:29 28° ENE 17:09:14 10° SE
BREEZE-M TANK 3.1 16:58:22 10° WNW 17:05:39 75° SSW 17:08:57 10° ESE
Cosmos 1842 Rocket 4.0 17:03:05 10° SSW 17:07:22 64° W 17:11:42 10° N
Cosmos 2333 Rocket 3.3 17:02:07 10° SW 17:07:34 45° WNW 17:13:00 10° NNE
Okean O Rocket 1.7 17:03:30 10° SSE 17:07:42 51° ENE 17:11:57 10° N
Radarsat Rocket 4.1 17:04:22 10° SSE 17:10:17 86° ENE 17:16:49 10° NNW
ISS -3.7 17:07:00 10° WSW 17:10:22 83° NNW 17:13:33 11° NE
Nadezhda 1 Rocket 4.0 17:04:20 10° S 17:10:37 73° E 17:17:00 10° NNE
COSMOS 2428 3.5 17:07:26 10° SW 17:13:01 52° WNW 17:18:39 10° NNE
Cosmos 1125 Rocket 3.6 17:09:06 10° N 17:14:12 52° ENE 17:19:16 10° SE
Cosmos 1805 Rocket 3.8 17:12:11 10° N 17:16:32 49° ENE 17:20:49 10° SSE
Cosmos 1151 Rocket 4.3 17:17:30 10° SE 17:20:34 19° E 17:23:24 11° NE
CZ-4B R/B 1.9 17:17:47 10° NNE 17:20:37 33° E 17:23:26 10° SSE
Cosmos 2278 Rocket 2.2 17:15:40 10° NNW 17:21:23 84° ENE 17:27:03 10° SSE
Cosmos 1666 Rocket 4.4 17:18:52 10° NNE 17:22:38 27° ENE 17:26:25 10° SE
Cosmos 2154 Rocket 4.1 17:19:36 10° N 17:25:58 87° ENE 17:32:20 10° S
CRYOSAT 2 4.3 17:21:38 10° N 17:26:32 76° E 17:31:25 10° S
Cosmos 1862 3.6 17:22:34 10° NNW 17:26:37 74° W 17:30:36 10° S
Lacrosse 5 rocket 2.8 17:24:31 10° SSE 17:26:51 16° SE 17:28:08 14° E
USA 267 3.7 17:21:54 10° E 17:27:56 42° NNE 17:33:59 10° NW
NOSS 0 Rocket 4.2 17:26:40 10° SSW 17:32:53 73° WNW 17:39:09 10° NNE
ERS-2 2.3 17:30:27 10° NNE 17:34:01 48° E 17:37:33 10° S
NOAA 12 4.2 17:28:47 10° SSE 17:34:07 82° WSW 17:39:29 10° NNW
CZ-2D R/B 4.2 17:31:37 10° SE 17:34:45 25° ENE 17:37:55 10° NNE
Cosmos 2341 Rocket 4.1 17:28:44 10° N 17:34:55 56° ENE 17:41:06 10° SSE
SL-24 R/B - RUBIN 2 4.2 17:29:09 10° NNW 17:35:28 84° NE 17:41:02 10° SE
CZ-4 R/B 2.6 17:38:22 20° ENE 17:38:22 20° ENE 17:41:02 10° NNE
Cosmos 2219 Rocket 3.9 17:33:50 10° WSW 17:38:43 29° NW 17:43:37 10° N
TELKOM 3 3.2 17:37:51 10° WSW 17:40:37 66° NNW 17:41:32 33° NE
Envisat 4.5 17:36:25 10° SSW 17:41:10 41° W 17:45:59 10° NNW
SMAP 3.6 17:36:50 10° S 17:41:26 63° WSW 17:46:04 10° NNW
CZ-3B R/B 3.3 17:39:51 10° S 17:41:46 13° SE 17:42:22 13° SE
H-2A R/B 3.2 17:38:22 10° N 17:42:19 43° WNW 17:46:19 10° SW
BREEZE-M DEB (TANK) 1.5 17:39:46 10° WSW 17:42:34 80° NNW 17:43:12 38° NE
CZ-4B R/B 3.6 17:37:20 10° S 17:42:40 64° WSW 17:47:57 10° NNW
SKYMED 2 3.8 17:41:12 10° NNE 17:45:23 45° E 17:49:32 10° S
USA 81 4.3 17:41:30 10° N 17:46:33 44° E 17:51:34 10° SSE
CREW DRAGON DEMO-1 DEB 4.0 17:44:56 10° NW 17:47:29 25° NNE 17:47:43 25° NNE
Cosmos 2237 Rocket 2.5 17:42:17 10° SSW 17:47:53 69° WNW 17:53:31 10° NNE
GENESIS II 4.1 17:45:22 10° NNW 17:49:20 83° NE 17:53:12 10° SE
NOAA 11 4.2 17:44:00 10° SSE 17:49:26 90° ENE 17:54:54 10° NNW
Cosmos 2285 Rocket 4.4 17:43:33 10° N 17:49:35 41° ENE 17:55:31 10° SE
Cosmos 1939 Rocket 2.8 17:46:33 10° SSE 17:50:19 54° ENE 17:54:08 10° N
FengYun 1-2 T 4.3 17:46:02 10° SSE 17:51:36 83° WSW 17:57:09 10° NNW
Cosmos 1633 Rocket 3.2 17:49:14 10° N 17:53:28 46° ENE 17:57:39 10° SSE
H-2A R/B 3.0 17:52:26 23° E 17:53:36 25° ENE 17:57:48 10° NNE
SL-8 Rocket 3.9 17:52:55 10° N 17:59:06 65° E 18:05:19 10° SSE
USA 281 3.3 17:55:15 10° SE 18:01:35 54° ENE 18:07:57 10° NNW
Cosmos 2369 Rocket 3.5 17:58:24 10° N 18:02:10 21° NE 18:02:10 21° NE
Cosmos 2181 Rocket 4.0 17:57:22 10° S 18:03:46 71° E 18:10:08 10° NNE
MOS 1 Rocket 4.1 18:03:47 22° NE 18:06:48 39° E 18:11:50 10° SSE
Abrixas rocket 3.5 18:04:48 10° W 18:07:18 31° SW 18:08:24 22° S
Cosmos 1959 Rocket 4.5 18:01:53 10° N 18:08:12 63° E 18:14:29 10° SSE
Cosmos 389 Rocket 4.1 18:16:53 10° SW 18:20:02 34° WNW 18:23:12 10° N
YAOGAN 1 2.8 18:21:24 48° NE 18:21:24 48° NE 18:25:03 10° N
Cosmos 1689 Rocket 3.2 18:25:21 39° SSW 18:25:21 39° SSW 18:27:19 10° SSW
Cosmos 1933 3.8 18:22:29 10° SSW 18:26:27 60° W 18:29:41 15° N
SL-08 R/B 4.5 18:21:47 10° N 18:27:49 54° ENE 18:33:46 10° SSE
Cosmos 2297 3.6 18:22:53 10° NNW 18:28:36 79° ENE 18:34:09 11° SSE
Cosmos 1470 Rocket 4.3 18:24:35 10° N 18:35:05 - SSE 18:27:22 37° NNE
Cosmos 1943 Rocket 2.3 18:26:11 10° NNW 18:31:35 50° ENE 18:31:41 49° ENE
Cosmos 44 3.4 18:26:29 10° NNW 18:31:45 63° NE 18:32:40 54° E
Meteor 1-14 Rocket 4.3 18:26:22 10° N 18:32:14 59° ENE 18:38:06 10° SSE
Okean-O 2.5 18:28:18 10° SSE 18:32:43 84° ENE 18:37:11 10° NNW
COSMO-SKYMED 1 3.3 18:29:20 11° N 18:33:25 53° WNW 18:37:38 10° SSW
NOAA 15 4.4 18:28:26 10° SSE 18:33:42 75° ENE 18:39:00 10° N
CZ-2C R/B 2.8 18:29:40 10° SSE 18:34:52 83° ENE 18:39:50 10° NNW
Cosmos 1867 4.0 18:29:57 10° SW 18:35:19 61° NW 18:37:58 30° NNE
Cosmos 1515 Rocket 4.2 18:31:03 10° S 18:34:01 41° SSE 18:34:01 41° SSE
SL-16 R/B 2.2 18:30:04 10° SSW 18:35:43 78° WNW 18:38:48 28° NNE
ARGOS 4.3 18:38:30 27° NNE 18:38:30 27° NNE 18:41:09 10° N
PSLV R/B 4.2 18:36:54 40° N 18:38:12 66° WNW 18:42:12 10° SSW
USA 215 3.7 18:35:13 28° NNE 18:38:41 56° NNW 18:45:02 10° WSW
Meteor 1-26 Rocket 4.4 18:34:57 10° S 18:40:56 83° W 18:47:01 10° N
SL-23 DEB 4.3 18:37:21 10° SW 18:41:10 65° SE 18:41:12 65° SE
Helios 1A Rocket 3.0 18:40:07 10° S 18:44:07 71° WSW 18:48:09 10° NNW
Cosmos 1782 3.6 18:40:33 10° S 18:43:15 43° SSW 18:43:15 43° SSW
Cosmos 2218 Rocket 4.2 18:38:48 10° NNW 18:44:55 68° W 18:50:59 10° S
Cosmos 1538 Rocket 4.3 18:39:42 10° S 18:43:58 50° SE 18:43:58 50° SE
ISS -1.4 18:44:48 10° WNW 18:46:31 20° NW 18:46:31 20° NW
CZ-4B R/B 4.4 18:51:28 10° NW 18:52:33 11° WNW 18:53:37 10° W
Cosmos 2366 rocket 4.5 18:49:48 10° NNW 18:55:52 58° W 19:01:52 10° S
Cosmos 1151 Rocket 4.5 18:53:53 10° SW 18:57:50 35° WNW 19:00:18 19° NNW
Lacrosse 5 rocket 3.2 19:02:03 10° WSW 19:03:47 25° WSW 19:03:47 25° WSW
USA 267 3.3 19:09:07 54° SSE 19:10:40 75° SW 19:17:13 10° NW
CZ-4 R/B 3.4 19:14:25 24° WNW 19:14:25 24° WNW 19:16:31 10° NNW
CSL-04 Debris 4.4 19:17:53 67° W 19:17:53 67° W 19:23:12 10° NNW
ATLAS CENTAUR R/B 4.0 19:06:05 10° NW 19:24:59 77° SW 19:27:27 52° SSE
H-2A R/B 3.1 19:33:04 44° W 19:33:04 44° W 19:37:47 10° NNW
Cosmos 2369 Rocket 3.9 19:41:36 10° NNW 19:43:59 26° NW 19:43:59 26° NW
Cosmos 1943 Rocket 4.4 20:10:36 10° NW 20:13:17 21° WNW 20:13:17 21° WNW
